This is the latest recevied weather packets stored in our database for station/object KI2K. If no packets are shown the sender has not sent any weather packets the latest 10 day(s).
| Time | Temp. | Humidity | Pressure | Rain* | Wind** | Luminosity | Snow |
|---|---|---|---|---|---|---|---|
| 1777476919 | 15° C | 81% | 1011.6 hPa | 0 mm | - | 814 W/m² | - |
| 1777476617 | 15° C | 82% | 1011.4 hPa | 0 mm | - | 465 W/m² | - |
| 1777476314 | 15° C | 83% | 1011.2 hPa | 0 mm | - | 428 W/m² | - |
| 1777476009 | 15° C | 85% | 1011.5 hPa | 0 mm | - | 383 W/m² | - |
| 1777475705 | 13.89° C | 87% | 1011.4 hPa | 0 mm | - | 367 W/m² | - |
| 1777475402 | 13.89° C | 89% | 1011.3 hPa | 0 mm | - | 279 W/m² | - |
| 1777475096 | 13.33° C | 91% | 1011.4 hPa | 0 mm | - | 209 W/m² | - |
| 1777474794 | 13.33° C | 92% | 1011.3 hPa | 0 mm | - | 182 W/m² | - |
| 1777474490 | 13.33° C | 93% | 1011.6 hPa | 0 mm | - | 165 W/m² | - |
| 1777474186 | 13.33° C | 95% | 1011.4 hPa | 0 mm | - | 115 W/m² | - |
| 1777473884 | 12.78° C | 97% | 1011.4 hPa | 0 mm | - | 248 W/m² | - |
| 1777473582 | 12.78° C | 99% | 1011.4 hPa | 0 mm | - | 262 W/m² | - |
| 1777473277 | 12.78° C | 99% | 1011.3 hPa | 0 mm | - | 369 W/m² | - |
| 1777472973 | 12.78° C | 99% | 1011.2 hPa | 0 mm | - | 255 W/m² | - |
| 1777472670 | 12.78° C | 99% | 1011.3 hPa | 0 mm | - | 215 W/m² | - |
| 1777472366 | 12.22° C | 99% | 1011.3 hPa | 0 mm | - | 150 W/m² | - |
| 1777472065 | 12.22° C | 99% | 1011.2 hPa | 0 mm | - | 137 W/m² | - |
| 1777471759 | 12.22° C | 99% | 1011.4 hPa | 0 mm | - | 144 W/m² | - |
| 1777471456 | 12.22° C | 99% | 1011.3 hPa | 0 mm | - | 134 W/m² | - |
| 1777471153 | 12.22° C | 99% | 1011.3 hPa | 0 mm | - | 104 W/m² | - |
| 1777470850 | 12.22° C | 99% | 1011.3 hPa | 0 mm | - | 90 W/m² | - |
| 1777470547 | 12.22° C | 99% | 1011.6 hPa | 0 mm | - | 78 W/m² | - |
| 1777470243 | 12.22° C | 99% | 1011.6 hPa | 0 mm | - | 95 W/m² | - |
| 1777469939 | 11.67° C | 99% | 1011.4 hPa | 0 mm | - | 81 W/m² | - |
| 1777469634 | 11.67° C | 99% | 1011.4 hPa | 0 mm | - | 115 W/m² | - |
* Rain latest hour (hover to see other rain measurements)
** Current wind speed in m/s (hover to see current wind gust speed)